Forside
METAR-TAF:

METAR-TAF

Lufthavne :

Anoka County-Blaine Airport (Janes Field)

Minneapolis / Blaine, Minnesota, USA

Breddekreds: 45-09N, længdekreds: 093-13W, højde: 278 m

Aktuelle vejr

Denne rapport blev lavet for 1 time og 4 minutter siden, kl. 01:45 UTC
Vind 4 kt fra vestnordvest
Temperatur -6°C
Fugtighed 53%
Tryk 1019 hPa
Sigt: 16.1 km
Brudte skyer i en højde af 20000 ft

METAR: KANE 280145Z 29004KT 10SM BKN200 M06/M14 A3010

Tid: 20:49 (02:49 UTC)


TAF: fraværende

Vejrobservationer og prognoser fra mere end 4000 lufthavne (METAR og TAF).

De gule og røde prikker repræsenterer de meteorologiske stationer.

Flyt musen over at se navnet på stationen.

Så klik over at se vejr observationer og prognoser.

At skifte det kort: Klik på de grønne knapper med et sort kors for at zoome ind; på den grønne knap med en bindestreg for at zoome ud; eller på de grønne pile for tilstødende kort.


METAR-TAF: